"Pseudo-MPEC" for N00ex3p

Created 2019 Jun 24 18:07:12 UT using Find_Orb

Click here for an explanation of pseudo-MPECs

 
 Astrometry: 
     N00ex3p  S2019 05 31mOiKshZM^Lbg+W*%:2(P[_bD1qh_2TpY]__W'?^?lF,QXj1rV97RC51
     N00ex3p  s2019 05 31d5c5#I2?[oX@9`dX,ed7wTHod;Kn5kW%o'[ybPW]1Jwu()`F@]TCC51
     N00ex3p  S2019 05 31,?^WARGfd[j-pDI!U,2)-.fHUa_/*F(B##u$j_*%)kv';w]!/=+pC51
     N00ex3p  s2019 05 31KKZ2$DpJL9'Ph`@'Dyd6ul+r),[FkRK=p,)N*R094:'NZ.r4rb/mC51
     N00ex3p  S2019 05 31\GT=myo?p@%HcT!smi4N=H6i\.Rl'yNN-Eva;;W5t1]]e8VX'j`xC51
     N00ex3p  s2019 05 31mvBO_tAfMIn5ojvd_SyY?6p*OM=0q#cdT+:9%5Y,9MAbr=WKY7joC51
     N00ex3p  S2019 06 01aNx4k/`Ir$WWrp\.)B!0=(5C``VQ*K83$'X3g'_k8d.RLkN'lD*(C51
     N00ex3p  s2019 06 01AjBwu'4:;rm\TR'lHkUTqF)xOv-W=Q:'[=;uC0G7FUCMHFsWjW]CC51
     N00ex3p  S2019 06 01Z3?AD7LxAstrometryQSYHn.FXV]X1Z,3Yj[IHF\+@#*WO(b)beQC51
     N00ex3p  s2019 06 01p1dHB8((KcapDereTH+1,:4YwPD)!UG'#is_LyH3IlxA/dO1I:q@C51
     N00ex3p  S2019 06 01T+y,6C57R\rU%F:QE=?n/qir[r]_2T%@:$LP!;ASQ9b1_^?[,)SuC51
     N00ex3p  s2019 06 01Uhm9MYG,ad7eBXML^e]!JV\V9i,oXS._3/lgq0mbviun=!O!ffjBC51
     N00ex3p KC2019 06 049!\(-Q`:9'HFnsVb6,Qe!nf*JRredacted;pLC8?DNH+YbELMubu474
     N00ex3p KC2019 06 04Hs]^%iI]i0aBh?s-=!/[rG-hN\Q$_JawOPG0h6t)2Uq+(%H)4$`L474
     N00ex3p KC2019 06 04OTbZXG*tE3$FwF6LP#[G.c1F;5eU;k^JS\U0Tj5g[jmemN3V7mg^474
     N00ex3p KC2019 06 05.V#Lnv!A2VwC0g2d/mU3HQXBmyZVV]t\+PX-qD=IgN6ylEGG4JS4474
     N00ex3p KC2019 06 05\O'\0]8G1tSb,:3*W\L_s%RLS@`WMNclick:WVvAmhh%ugi,G]X`474
     N00ex3p KC2019 06 05V^lNdI%WPSq-cGNWiq\+F#-6#n7`QpdDy)Db!RoM:YNB69L#:O1*474
     N00ex3p KC2019 06 05,YAG_r=$ppa:rIp%w?w%;gC/mGIv2S)ENP*FGbqrI1jr[I72Bh8^474
     N00ex3p 1C2019 06 0505mW6pTI7Gwg,whnn`Z+6o.'(QJtiZ/\7,EU\$,I0)l$R,v273[FQ62
     N00ex3p 1C2019 06 05ncQ7@x!Vj!b5Wqr[#uE`ghere$8t$eg`e\#;6SFCqbX(Y*d6cwGgQ62
     N00ex3p |C2019 06 235uh:aULkWClrforYEhZB_BThexplanationV_,l?Iif7YbYM#h'O807
     N00ex3p |C2019 06 23Z^LLW`Ky@m_G'r`g?%j.F'A.:n1)u:cZgikM:jGa)c.d\IQ!NBct807
     N00ex3p |C2019 06 23#_\SGG)dc)S.0GxW.(tlV?x1ntOBQ4%oApJB4g%gu54tFvVAmQ2=807

Station data:
(474) Mount John Observatory, Lake Tekapo  (S43.987388 E170.464960)  New
   Zealand.  Observers A. C. Gilmore, P. M. Kilmartin. Measurer P. M.
   Kilmartin. 1.0-m f/7.7 reflector + CCD.
(807) Cerro Tololo Observatory, La Serena  (S30.169136 W70.805900)  Chile.
(C51) WISE. Measurers A. Mainzer, E. Wright, J. Bauer, T. Grav, J. Dailey, J.
   Masiero, R. Cutri, R. McMillan, R. Walker.
(Q62) iTelescope Observatory, Siding Spring  (S31.273289 E149.064420)
   Australia/NSW. 0.50-m f/6.8 astrograph + CCD + focal reducer, 0.70-m f/6.6
   astrograph + CCD.

Orbital elements:  N00ex3p
   Perihelion 2019 Aug 5.896803 +/- 0.297 TT = 21:31:23 (JD 2458701.396803)
Epoch 2019 Jun 23.0 TT = JDT 2458657.5   Earth MOID: 0.2449   Ve: 0.0432
M 348.42552066 +/- 0.9              (J2000 ecliptic)          AutoNEOCP
n   0.26367476 +/- 0.0197           Peri.   18.42610 +/- 0.33
a   2.40855740 +/- 0.121            Node   321.63518 +/- 0.16
e   0.6897930 +/- 0.016             Incl.   37.46756 +/- 0.36
P   3.74                   H 19.8   G  0.15   U 10.1  
q 0.74715120 +/- 0.00155    Q 4.06996361 +/- 0.271
From 18 observations 2019 May 31-June 23; mean residual 0".72
Residuals in arcseconds: 
190531 C51  .33+  .35+    190604 474  .25+  .65-    190605 474  .79-  .02+    
190531 C51  .74-  .32-    190604 474  .05-  .36+    190605 Q62  .17-  .23-    
190531 C51  .74-  .35+    190604 474  1.1+  .15-    190605 Q62  .38+  .35+    
190601 C51  .79-  .04-    190605 474  .78+  .13-    190623 807  .13+  1.4+    
190601 C51  1.0-  .41+    190605 474  .05-  .45-    190623 807  .75+  1.9+    
190601 C51  .36-  .37+    190605 474  .64-  .06-    190623 807  .07+  2.1+    

Ephemerides (geocentric):
Date (UTC) HH   RA              Dec         delta   r     elong  mag " sig PA
---- -- -- --  -------------   -----------  ------ ------ -----  --- ---- ---
2019 06 24 18  04 56 00.854   -48 54 19.01  .49079 1.0017  74.3 20.9 1.42  16
2019 06 24 19  04 56 02.395   -48 51 27.51  .49039 1.0013  74.2 20.9 1.47  17
2019 06 24 20  04 56 03.936   -48 48 35.72  .48998 1.0009  74.2 20.9 1.52  17
2019 06 24 21  04 56 05.477   -48 45 43.64  .48958 1.0005  74.1 20.9 1.58  18
2019 06 24 22  04 56 07.018   -48 42 51.26  .48917 1.0001  74.1 20.9 1.63  18
2019 06 24 23  04 56 08.559   -48 39 58.58  .48877 0.9997  74.1 20.9 1.68  19
2019 06 25 00  04 56 10.100   -48 37 05.60  .48837 0.9993  74.0 20.9 1.74  20
2019 06 25 01  04 56 11.641   -48 34 12.33  .48796 0.9989  74.0 20.9 1.79  20
2019 06 25 02  04 56 13.182   -48 31 18.76  .48756 0.9985  74.0 20.9 1.85  20
2019 06 25 03  04 56 14.723   -48 28 24.89  .48715 0.9981  73.9 20.9 1.90  21
2019 06 25 04  04 56 16.265   -48 25 30.71  .48675 0.9977  73.9 20.9 1.96  21
2019 06 25 05  04 56 17.806   -48 22 36.24  .48634 0.9972  73.8 20.9 2.01  22
2019 06 25 06  04 56 19.348   -48 19 41.46  .48594 0.9968  73.8 20.9 2.07  22
2019 06 25 07  04 56 20.889   -48 16 46.38  .48553 0.9964  73.8 20.9 2.12  23
2019 06 25 08  04 56 22.431   -48 13 51.00  .48513 0.9960  73.7 20.9 2.18  23
2019 06 25 09  04 56 23.973   -48 10 55.31  .48473 0.9956  73.7 20.9 2.24  23
2019 06 25 10  04 56 25.515   -48 07 59.31  .48432 0.9952  73.6 20.9 2.29  24
2019 06 25 11  04 56 27.058   -48 05 03.01  .48392 0.9948  73.6 20.9 2.35  24
2019 06 25 12  04 56 28.600   -48 02 06.39  .48352 0.9944  73.6 20.9 2.41  24
2019 06 25 13  04 56 30.143   -47 59 09.47  .48311 0.9940  73.5 20.9 2.46  25
2019 06 25 14  04 56 31.686   -47 56 12.24  .48271 0.9936  73.5 20.9 2.52  25
2019 06 25 15  04 56 33.229   -47 53 14.70  .48231 0.9932  73.4 20.9 2.58  25
2019 06 25 16  04 56 34.772   -47 50 16.85  .48190 0.9928  73.4 20.9 2.64  26
2019 06 25 17  04 56 36.315   -47 47 18.68  .48150 0.9924  73.4 20.9 2.70  26
2019 06 25 18  04 56 37.859   -47 44 20.20  .48110 0.9920  73.3 20.9 2.76  26
2019 06 25 19  04 56 39.403   -47 41 21.40  .48070 0.9916  73.3 20.9 2.82  26
2019 06 25 20  04 56 40.947   -47 38 22.29  .48029 0.9912  73.2 20.9 2.88  27
2019 06 25 21  04 56 42.492   -47 35 22.86  .47989 0.9908  73.2 20.9 2.94  27
2019 06 25 22  04 56 44.036   -47 32 23.12  .47949 0.9904  73.2 20.9 3.00  27
2019 06 25 23  04 56 45.581   -47 29 23.06  .47909 .98996  73.1 20.9 3.06  27
2019 06 26 00  04 56 47.127   -47 26 22.67  .47868 .98956  73.1 20.9 3.12  28
2019 06 26 01  04 56 48.672   -47 23 21.97  .47828 .98916  73.0 20.9 3.18  28
2019 06 26 02  04 56 50.218   -47 20 20.94  .47788 .98875  73.0 20.9 3.24  28
2019 06 26 03  04 56 51.764   -47 17 19.60  .47748 .98835  73.0 20.9 3.30  28
2019 06 26 04  04 56 53.311   -47 14 17.93  .47708 .98795  72.9 20.9 3.36  29
2019 06 26 05  04 56 54.858   -47 11 15.93  .47668 .98755  72.9 20.9 3.43  29
2019 06 26 06  04 56 56.405   -47 08 13.61  .47628 .98714  72.8 20.9 3.49  29
2019 06 26 07  04 56 57.953   -47 05 10.97  .47587 .98674  72.8 20.9 3.55  29
2019 06 26 08  04 56 59.501   -47 02 07.99  .47547 .98634  72.8 20.9 3.61  29
2019 06 26 09  04 57 01.050   -46 59 04.69  .47507 .98594  72.7 20.9 3.68  30
2019 06 26 10  04 57 02.598   -46 56 01.06  .47467 .98553  72.7 20.9 3.74  30
2019 06 26 11  04 57 04.148   -46 52 57.10  .47427 .98513  72.6 20.9 3.80  30
2019 06 26 12  04 57 05.697   -46 49 52.81  .47387 .98473  72.6 20.9 3.87  30
2019 06 26 13  04 57 07.248   -46 46 48.19  .47347 .98433  72.6 20.9 3.93  30
2019 06 26 14  04 57 08.798   -46 43 43.23  .47307 .98393  72.5 20.9 4.00  31
2019 06 26 15  04 57 10.349   -46 40 37.94  .47267 .98353  72.5 20.9 4.06  31
2019 06 26 16  04 57 11.901   -46 37 32.32  .47227 .98313  72.4 20.9 4.12  31
2019 06 26 17  04 57 13.453   -46 34 26.36  .47187 .98273  72.4 20.9 4.19  31